,,,PA_Meas_PMT16A,,PR_Meas_QMR101_102,,RH_Meas_QMH101,,SR_Meas_QMS101,,TA_Meas_QMH101,,GenWind,,GenWind,
date,time,status,PA,status,PR,status,RH,status,SR,status,TA,status,DirAvg,status,SpdAvg,
2010-04-17, 00:00:04,VALID,1006.16,VALID,0,VALID,95.5365,VALID,0,VALID,25.1248,VALID,26,VALID,0.269141,
2010-04-17, 00:01:04,VALID,1006.16,VALID,0,VALID,95.5288,VALID,0,VALID,25.1637,VALID,26,VALID,0.0140625,
2010-04-17, 00:02:04,VALID,1006.19,VALID,0,VALID,95.5594,VALID,0,VALID,25.1832,VALID,26,VALID,0,
2010-04-17, 00:03:04,VALID,1006.17,VALID,0,VALID,95.5822,VALID,0,VALID,25.1813,VALID,26,VALID,0.246094,
2010-04-17, 00:04:04,VALID,1006.15,VALID,0,VALID,95.5822,VALID,0,VALID,25.2027,VALID,26,VALID,0.0558594,
2010-04-17, 00:05:04,VALID,1006.12,VALID,0,VALID,95.5822,VALID,0,VALID,25.2027,VALID,26,VALID,0.00117188,
2010-04-17, 00:06:04,VALID,1006.12,VALID,0,VALID,95.5746,VALID,0,VALID,25.1637,VALID,26,VALID,0.231641,
2010-04-17, 00:07:04,VALID,1006.08,VALID,0,VALID,95.5822,VALID,0,VALID,25.1637,VALID,26,VALID,0,
2010-04-17, 00:08:04,VALID,1006.06,VALID,0,VALID,95.567,VALID,0,VALID,25.1442,VALID,26,VALID,0.316406,
2010-04-17, 00:09:04,VALID,1006.01,VALID,0,VALID,95.567,VALID,0,VALID,25.1656,VALID,26,VALID,0.175391,
2010-04-17, 00:10:04,VALID,1006.04,VALID,0,VALID,95.5517,VALID,0,VALID,25.1442,VALID,26,VALID,0.281641,
2010-04-17, 00:11:04,VALID,1006,VALID,0,VALID,95.5899,VALID,0,VALID,25.1248,VALID,66,VALID,0.578125,
2010-04-17, 00:12:04,VALID,1005.97,VALID,0,VALID,95.5746,VALID,0,VALID,25.1053,VALID,68,VALID,0.194141,
2010-04-17, 00:13:04,VALID,1005.95,VALID,0,VALID,95.5822,VALID,0,VALID,25.0858,VALID,68,VALID,0.00703125,
2010-04-17, 00:14:04,VALID,1005.91,VALID,0,VALID,95.567,VALID,0,VALID,25.0663,VALID,68,VALID,0.453516,
2010-04-17, 00:15:04,VALID,1005.89,VALID,0,VALID,95.5899,VALID,0,VALID,25.0663,VALID,68,VALID,0.505469,
2010-04-17, 00:16:04,VALID,1005.83,VALID,0,VALID,95.628,VALID,0,VALID,25.0682,VALID,68,VALID,0.453125,
2010-04-17, 00:17:04,VALID,1005.8,VALID,0,VALID,95.628,VALID,0,VALID,25.0469,VALID,68,VALID,0.391406,
2010-04-17, 00:18:04,VALID,1005.75,VALID,0,VALID,95.6585,VALID,0,VALID,25.0274,VALID,104,VALID,0.625781,
2010-04-17, 00:19:04,VALID,1005.75,VALID,0,VALID,95.6662,VALID,0,VALID,25.0274,VALID,104,VALID,0.608984,
2010-04-17, 00:20:04,VALID,1005.7,VALID,0,VALID,95.6967,VALID,0,VALID,25.0274,VALID,104,VALID,0.509375,
2010-04-17, 00:21:04,VALID,1005.66,VALID,0,VALID,95.6967,VALID,0,VALID,25.0274,VALID,114,VALID,0.500781,
2010-04-17, 00:22:04,VALID,1005.66,VALID,0,VALID,95.7424,VALID,0,VALID,25.0079,VALID,114,VALID,0.434766,
2010-04-17, 00:23:04,VALID,1005.63,VALID,0,VALID,95.7577,VALID,0,VALID,24.9885,VALID,114,VALID,0.20625,
2010-04-17, 00:24:04,VALID,1005.61,VALID,0,VALID,95.7653,VALID,0,VALID,24.969,VALID,114,VALID,0.325391,
2010-04-17, 00:25:04,VALID,1005.62,VALID,0,VALID,95.7882,VALID,0,VALID,24.969,VALID,114,VALID,0.492578,
2010-04-17, 00:26:04,VALID,1005.61,VALID,0,VALID,95.7882,VALID,0,VALID,24.9495,VALID,100,VALID,0.453516,
2010-04-17, 00:27:04,VALID,1005.62,VALID,0,VALID,95.8035,VALID,0,VALID,24.93,VALID,100,VALID,0.404687,
2010-04-17, 00:28:04,VALID,1005.62,VALID,0,VALID,95.8264,VALID,0,VALID,24.93,VALID,100,VALID,0.26875,
2010-04-17, 00:29:04,VALID,1005.6,VALID,0,VALID,95.834,VALID,0,VALID,24.9106,VALID,100,VALID,0.131641,
2010-04-17, 00:30:04,VALID,1005.59,VALID,0,VALID,95.8416,VALID,0.100563,VALID,24.93,VALID,100,VALID,0.148828,
2010-04-17, 00:31:04,VALID,1005.57,VALID,0,VALID,95.8264,VALID,0,VALID,24.9087,VALID,86,VALID,0.364844,
2010-04-17, 00:32:04,VALID,1005.52,VALID,0,VALID,95.8569,VALID,0,VALID,24.8679,VALID,83,VALID,0.358203,
2010-04-17, 00:33:04,VALID,1005.54,VALID,0,VALID,95.8645,VALID,0.100563,VALID,24.8892,VALID,83,VALID,0.148438,
2010-04-17, 00:34:04,VALID,1005.48,VALID,0,VALID,95.8493,VALID,0,VALID,24.8892,VALID,83,VALID,0.0128906,
2010-04-17, 00:35:04,VALID,1005.47,VALID,0,VALID,95.8798,VALID,0,VALID,24.9087,VALID,83,VALID,0.146875,
2010-04-17, 00:36:04,VALID,1005.46,VALID,0,VALID,95.8645,VALID,0,VALID,24.8892,VALID,83,VALID,0.112109,
2010-04-17, 00:37:04,VALID,1005.43,VALID,0,VALID,95.9027,VALID,0,VALID,24.93,VALID,83,VALID,0.219531,
2010-04-17, 00:38:04,VALID,1005.4,VALID,0,VALID,95.9027,VALID,0,VALID,24.9087,VALID,73,VALID,0.446094,
2010-04-17, 00:39:04,VALID,1005.37,VALID,0,VALID,95.9179,VALID,0.100563,VALID,24.9087,VALID,73,VALID,0.302734,
2010-04-17, 00:40:04,VALID,1005.31,VALID,0,VALID,95.9255,VALID,0,VALID,24.8892,VALID,73,VALID,0.257422,
2010-04-17, 00:41:04,VALID,1005.29,VALID,0,VALID,95.9179,VALID,0,VALID,24.8892,VALID,73,VALID,0.239844,
2010-04-17, 00:42:04,VALID,1005.3,VALID,0,VALID,95.9255,VALID,0,VALID,24.8697,VALID,73,VALID,0.448828,
2010-04-17, 00:43:04,VALID,1005.27,VALID,0,VALID,95.9179,VALID,0.100563,VALID,24.8503,VALID,52,VALID,0.403906,
2010-04-17, 00:44:04,VALID,1005.23,VALID,0,VALID,95.9027,VALID,0,VALID,24.8327,VALID,7,VALID,0.463672,
2010-04-17, 00:45:04,VALID,1005.23,VALID,0,VALID,95.9179,VALID,0,VALID,24.8522,VALID,7,VALID,0.464063,
2010-04-17, 00:46:04,VALID,1005.22,VALID,0,VALID,95.9255,VALID,0,VALID,24.8522,VALID,7,VALID,0.335938,
2010-04-17, 00:47:04,VALID,1005.21,VALID,0,VALID,95.9332,VALID,0,VALID,24.8522,VALID,7,VALID,0.298047,
2010-04-17, 00:48:04,VALID,1005.22,VALID,0,VALID,95.9713,VALID,0,VALID,24.8522,VALID,7,VALID,0.285937,
2010-04-17, 00:49:04,VALID,1005.2,VALID,0,VALID,95.9484,VALID,0,VALID,24.8522,VALID,7,VALID,0.292578,
2010-04-17, 00:50:04,VALID,1005.21,VALID,0,VALID,95.9866,VALID,0,VALID,24.8327,VALID,7,VALID,0.335547,
2010-04-17, 00:51:04,VALID,1005.17,VALID,0,VALID,95.9789,VALID,0,VALID,24.8327,VALID,7,VALID,0,
2010-04-17, 00:52:04,VALID,1005.15,VALID,0,VALID,95.9866,VALID,0,VALID,24.8113,VALID,7,VALID,0,
2010-04-17, 00:53:04,VALID,1005.14,VALID,0,VALID,96.0018,VALID,0,VALID,24.8327,VALID,7,VALID,0,
2010-04-17, 00:54:04,VALID,1005.13,VALID,0,VALID,96.0018,VALID,0,VALID,24.8132,VALID,7,VALID,0,
2010-04-17, 00:55:04,VALID,1005.15,VALID,0,VALID,96.0171,VALID,0,VALID,24.8132,VALID,7,VALID,0,
2010-04-17, 00:56:04,VALID,1005.15,VALID,0,VALID,96.04,VALID,0,VALID,24.8113,VALID,7,VALID,0,
2010-04-17, 00:57:04,VALID,1005.12,VALID,0,VALID,96.0323,VALID,0,VALID,24.8327,VALID,7,VALID,0,
2010-04-17, 00:58:04,VALID,1005.14,VALID,0,VALID,96.04,VALID,0,VALID,24.8327,VALID,7,VALID,0,
2010-04-17, 00:59:04,VALID,1005.14,VALID,0,VALID,96.0476,VALID,0,VALID,24.854,VALID,7,VALID,0,
2010-04-17, 01:00:04,VALID,1005.14,VALID,0,VALID,96.0552,VALID,0,VALID,24.8522,VALID,288,VALID,0.80625,
2010-04-17, 01:01:04,VALID,1005.16,VALID,0,VALID,96.0705,VALID,0,VALID,24.8503,VALID,287,VALID,0.178906,
2010-04-17, 01:02:04,VALID,1005.12,VALID,0,VALID,96.0629,VALID,0,VALID,24.8716,VALID,287,VALID,0.00117188,
2010-04-17, 01:03:04,VALID,1005.12,VALID,0,VALID,96.0781,VALID,0,VALID,24.8716,VALID,287,VALID,0.173047,
2010-04-17, 01:04:04,VALID,1005.08,VALID,0,VALID,96.0934,VALID,0,VALID,24.8911,VALID,287,VALID,0.145313,
2010-04-17, 01:05:04,VALID,1005.09,VALID,0,VALID,96.101,VALID,0,VALID,24.8716,VALID,207,VALID,0.548828,
2010-04-17, 01:06:04,VALID,1005.08,VALID,0,VALID,96.0857,VALID,0,VALID,24.8911,VALID,207,VALID,0.430078,
2010-04-17, 01:07:04,VALID,1005.07,VALID,0,VALID,96.0934,VALID,0,VALID,24.8697,VALID,207,VALID,0.41875,
2010-04-17, 01:08:04,VALID,1005.06,VALID,0,VALID,96.0934,VALID,0,VALID,24.8911,VALID,207,VALID,0.328125,
2010-04-17, 01:09:04,VALID,1005.07,VALID,0,VALID,96.0934,VALID,0,VALID,24.8697,VALID,207,VALID,0.323047,
2010-04-17, 01:10:04,VALID,1005.06,VALID,0,VALID,96.101,VALID,0,VALID,24.8911,VALID,207,VALID,0.364453,
2010-04-17, 01:11:04,VALID,1005.03,VALID,0,VALID,96.0934,VALID,0,VALID,24.8911,VALID,207,VALID,0.0945313,
2010-04-17, 01:12:04,VALID,1005.05,VALID,0,VALID,96.0857,VALID,0,VALID,24.8503,VALID,207,VALID,0,
2010-04-17, 01:13:04,VALID,1005.03,VALID,0,VALID,96.0781,VALID,0,VALID,24.8522,VALID,207,VALID,0.303125,
2010-04-17, 01:14:04,VALID,1005,VALID,0,VALID,96.0781,VALID,0,VALID,24.8522,VALID,207,VALID,0.311328,
2010-04-17, 01:15:04,VALID,1005,VALID,0,VALID,96.0781,VALID,0,VALID,24.8327,VALID,207,VALID,0.282422,
2010-04-17, 01:16:04,VALID,1005.02,VALID,0,VALID,96.0629,VALID,0,VALID,24.7937,VALID,207,VALID,0.173438,
2010-04-17, 01:17:04,VALID,1004.99,VALID,0,VALID,96.0781,VALID,0,VALID,24.7919,VALID,207,VALID,0.198828,
2010-04-17, 01:18:04,VALID,1004.96,VALID,0,VALID,96.0781,VALID,0,VALID,24.7937,VALID,207,VALID,0.0863281,
2010-04-17, 01:19:04,VALID,1004.95,VALID,0,VALID,96.101,VALID,0,VALID,24.7743,VALID,207,VALID,0.370313,
2010-04-17, 01:20:04,VALID,1004.94,VALID,0,VALID,96.101,VALID,0,VALID,24.7761,VALID,207,VALID,0.49375,
2010-04-17, 01:21:04,VALID,1004.93,VALID,0,VALID,96.0781,VALID,0,VALID,24.7159,VALID,207,VALID,0.212891,
2010-04-17, 01:22:04,VALID,1004.94,VALID,0,VALID,96.101,VALID,0,VALID,24.7159,VALID,207,VALID,0.335938,
2010-04-17, 01:23:04,VALID,1004.91,VALID,0,VALID,96.0934,VALID,0,VALID,24.6964,VALID,207,VALID,0.312891,
2010-04-17, 01:24:04,VALID,1004.9,VALID,0,VALID,96.0934,VALID,0,VALID,24.6574,VALID,205,VALID,0.208203,
2010-04-17, 01:25:04,VALID,1004.9,VALID,0,VALID,96.101,VALID,0,VALID,24.6574,VALID,205,VALID,0.270312,
2010-04-17, 01:26:04,VALID,1004.86,VALID,0,VALID,96.1086,VALID,0,VALID,24.638,VALID,205,VALID,0.18125,
2010-04-17, 01:27:04,VALID,1004.86,VALID,0,VALID,96.101,VALID,0,VALID,24.6185,VALID,224,VALID,0.552734,
2010-04-17, 01:28:04,VALID,1004.88,VALID,0,VALID,96.1086,VALID,0,VALID,24.638,VALID,339,VALID,0.813672,
2010-04-17, 01:29:04,VALID,1004.82,VALID,0,VALID,96.1239,VALID,0,VALID,24.6185,VALID,350,VALID,0.948438,
2010-04-17, 01:30:04,VALID,1004.8,VALID,0,VALID,96.1163,VALID,0,VALID,24.6185,VALID,353,VALID,0.433594,
2010-04-17, 01:31:04,VALID,1004.77,VALID,0,VALID,96.1239,VALID,0,VALID,24.6166,VALID,353,VALID,0.509766,
2010-04-17, 01:32:04,VALID,1004.78,VALID,0,VALID,96.1315,VALID,0,VALID,24.6574,VALID,353,VALID,0.537891,
2010-04-17, 01:33:04,VALID,1004.71,VALID,0,VALID,96.1392,VALID,0,VALID,24.6556,VALID,354,VALID,0.73125,
2010-04-17, 01:34:04,VALID,1004.7,VALID,0,VALID,96.1468,VALID,0,VALID,24.6983,VALID,357,VALID,0.194531,
2010-04-17, 01:35:04,VALID,1004.69,VALID,0,VALID,96.162,VALID,0,VALID,24.7177,VALID,357,VALID,0.536719,
2010-04-17, 01:36:04,VALID,1004.69,VALID,0,VALID,96.1773,VALID,0,VALID,24.7372,VALID,357,VALID,0.05625,
2010-04-17, 01:37:04,VALID,1004.66,VALID,0,VALID,96.162,VALID,0,VALID,24.7353,VALID,357,VALID,0.00273437,
2010-04-17, 01:38:04,VALID,1004.7,VALID,0,VALID,96.1697,VALID,0,VALID,24.714,VALID,357,VALID,0.388672,
2010-04-17, 01:39:04,VALID,1004.68,VALID,0,VALID,96.1773,VALID,0,VALID,24.7548,VALID,357,VALID,0.498047,
2010-04-17, 01:40:04,VALID,1004.7,VALID,0,VALID,96.2002,VALID,0,VALID,24.7548,VALID,357,VALID,0.620313,
2010-04-17, 01:41:04,VALID,1004.7,VALID,0,VALID,96.1773,VALID,0,VALID,24.7548,VALID,357,VALID,0.469531,
2010-04-17, 01:42:04,VALID,1004.66,VALID,0,VALID,96.1926,VALID,0,VALID,24.714,VALID,357,VALID,0.337891,
2010-04-17, 01:43:04,VALID,1004.65,VALID,0,VALID,96.1849,VALID,0,VALID,24.7159,VALID,357,VALID,0.469141,
2010-04-17, 01:44:04,VALID,1004.65,VALID,0,VALID,96.2002,VALID,0,VALID,24.675,VALID,357,VALID,0.217969,
2010-04-17, 01:45:04,VALID,1004.59,VALID,0,VALID,96.2154,VALID,0,VALID,24.7177,VALID,357,VALID,0.161328,
2010-04-17, 01:46:04,VALID,1004.61,VALID,0,VALID,96.1773,VALID,0,VALID,24.6769,VALID,357,VALID,0,
2010-04-17, 01:47:04,VALID,1004.63,VALID,0,VALID,96.1773,VALID,0,VALID,24.6788,VALID,357,VALID,0,
2010-04-17, 01:48:04,VALID,1004.61,VALID,0,VALID,96.1926,VALID,0,VALID,24.6574,VALID,357,VALID,0,
2010-04-17, 01:49:04,VALID,1004.62,VALID,0,VALID,96.1926,VALID,0,VALID,24.6185,VALID,357,VALID,0,
2010-04-17, 01:50:04,VALID,1004.61,VALID,0,VALID,96.1849,VALID,0,VALID,24.5972,VALID,357,VALID,0,
2010-04-17, 01:51:04,VALID,1004.57,VALID,0,VALID,96.162,VALID,0,VALID,24.599,VALID,357,VALID,0,
2010-04-17, 01:52:04,VALID,1004.61,VALID,0,VALID,96.1773,VALID,0,VALID,24.599,VALID,357,VALID,0.258594,
2010-04-17, 01:53:04,VALID,1004.54,VALID,0,VALID,96.1544,VALID,0,VALID,24.6185,VALID,357,VALID,0.209375,
2010-04-17, 01:54:04,VALID,1004.57,VALID,0,VALID,96.1773,VALID,0,VALID,24.6593,VALID,357,VALID,0.446094,
2010-04-17, 01:55:04,VALID,1004.53,VALID,0,VALID,96.1697,VALID,0,VALID,24.6574,VALID,357,VALID,0.208203,
2010-04-17, 01:56:04,VALID,1004.53,VALID,0,VALID,96.1697,VALID,0,VALID,24.6574,VALID,357,VALID,0.328516,
2010-04-17, 01:57:04,VALID,1004.48,VALID,0,VALID,96.1849,VALID,0,VALID,24.6983,VALID,357,VALID,0.501953,
2010-04-17, 01:58:04,VALID,1004.5,VALID,0,VALID,96.1697,VALID,0,VALID,24.6964,VALID,357,VALID,0.545703,
2010-04-17, 01:59:04,VALID,1004.48,VALID,0,VALID,96.162,VALID,0,VALID,24.7177,VALID,357,VALID,0.607422,
2010-04-17, 02:00:04,VALID,1004.47,VALID,0,VALID,96.2078,VALID,0,VALID,24.6964,VALID,357,VALID,0.784766,
2010-04-17, 02:01:04,VALID,1004.43,VALID,0,VALID,96.1926,VALID,0,VALID,24.6769,VALID,358,VALID,0.710156,
2010-04-17, 02:02:04,VALID,1004.44,VALID,0,VALID,96.2154,VALID,0,VALID,24.6983,VALID,358,VALID,0.645312,
2010-04-17, 02:03:04,VALID,1004.4,VALID,0,VALID,96.2002,VALID,0,VALID,24.6769,VALID,358,VALID,0.592188,
2010-04-17, 02:04:04,VALID,1004.38,VALID,0,VALID,96.2078,VALID,0,VALID,24.6964,VALID,358,VALID,0.503906,
2010-04-17, 02:05:04,VALID,1004.35,VALID,0,VALID,96.2078,VALID,0,VALID,24.7159,VALID,358,VALID,0.492578,
2010-04-17, 02:06:04,VALID,1004.34,VALID,0,VALID,96.2154,VALID,0,VALID,24.6964,VALID,358,VALID,0.372266,
2010-04-17, 02:07:04,VALID,1004.34,VALID,0,VALID,96.2231,VALID,0,VALID,24.6964,VALID,358,VALID,0.289063,
2010-04-17, 02:08:04,VALID,1004.34,VALID,0,VALID,96.2231,VALID,0,VALID,24.7159,VALID,358,VALID,0.204297,
2010-04-17, 02:09:04,VALID,1004.32,VALID,0,VALID,96.2078,VALID,0,VALID,24.7177,VALID,358,VALID,0.00742187,
2010-04-17, 02:10:04,VALID,1004.29,VALID,0,VALID,96.2307,VALID,0,VALID,24.7372,VALID,358,VALID,0.164453,
2010-04-17, 02:11:04,VALID,1004.27,VALID,0,VALID,96.2231,VALID,0,VALID,24.7159,VALID,358,VALID,0,
2010-04-17, 02:12:04,VALID,1004.24,VALID,0,VALID,96.2307,VALID,0,VALID,24.7159,VALID,358,VALID,0,
2010-04-17, 02:13:04,VALID,1004.23,VALID,0,VALID,96.2536,VALID,0,VALID,24.7177,VALID,358,VALID,0.278125,
2010-04-17, 02:14:04,VALID,1004.2,VALID,0,VALID,96.246,VALID,0,VALID,24.6964,VALID,358,VALID,0.075,
2010-04-17, 02:15:04,VALID,1004.21,VALID,0,VALID,96.2383,VALID,0,VALID,24.6769,VALID,358,VALID,0,
2010-04-17, 02:16:04,VALID,1004.16,VALID,0,VALID,96.2383,VALID,0,VALID,24.6964,VALID,358,VALID,0,
2010-04-17, 02:17:04,VALID,1004.17,VALID,0,VALID,96.2536,VALID,0,VALID,24.675,VALID,358,VALID,0,
2010-04-17, 02:18:04,VALID,1004.18,VALID,0,VALID,96.2536,VALID,0,VALID,24.6769,VALID,358,VALID,0,
2010-04-17, 02:19:04,VALID,1004.16,VALID,0,VALID,96.246,VALID,0,VALID,24.6769,VALID,358,VALID,0.290234,
2010-04-17, 02:20:04,VALID,1004.17,VALID,0,VALID,96.246,VALID,0,VALID,24.6769,VALID,358,VALID,0.204297,
2010-04-17, 02:21:04,VALID,1004.16,VALID,0,VALID,96.2536,VALID,0,VALID,24.6769,VALID,358,VALID,0.179297,
2010-04-17, 02:22:04,VALID,1004.16,VALID,0,VALID,96.2536,VALID,0,VALID,24.6769,VALID,358,VALID,0.195313,
2010-04-17, 02:23:04,VALID,1004.17,VALID,0,VALID,96.2688,VALID,0,VALID,24.6769,VALID,358,VALID,0.287891,
2010-04-17, 02:24:04,VALID,1004.16,VALID,0,VALID,96.2536,VALID,0,VALID,24.6361,VALID,358,VALID,0.28125,
2010-04-17, 02:25:04,VALID,1004.14,VALID,0,VALID,96.2688,VALID,0,VALID,24.6769,VALID,358,VALID,0.24375,
2010-04-17, 02:26:04,VALID,1004.14,VALID,0,VALID,96.2536,VALID,0,VALID,24.6574,VALID,358,VALID,0.175,
2010-04-17, 02:27:04,VALID,1004.16,VALID,0,VALID,96.2536,VALID,0,VALID,24.6574,VALID,358,VALID,0,
2010-04-17, 02:28:04,VALID,1004.15,VALID,0,VALID,96.2383,VALID,0,VALID,24.638,VALID,358,VALID,0.00351562,
2010-04-17, 02:29:04,VALID,1004.14,VALID,0,VALID,96.2612,VALID,0,VALID,24.6185,VALID,358,VALID,0.0015625,
2010-04-17, 02:30:04,VALID,1004.18,VALID,0,VALID,96.2612,VALID,0,VALID,24.5972,VALID,358,VALID,0,
2010-04-17, 02:31:04,VALID,1004.16,VALID,0,VALID,96.2612,VALID,0,VALID,24.5972,VALID,358,VALID,0,
2010-04-17, 02:32:04,VALID,1004.17,VALID,0,VALID,96.2536,VALID,0,VALID,24.5972,VALID,358,VALID,0,
2010-04-17, 02:33:04,VALID,1004.18,VALID,0,VALID,96.2688,VALID,0,VALID,24.6185,VALID,358,VALID,0.469141,
2010-04-17, 02:34:04,VALID,1004.21,VALID,0,VALID,96.2612,VALID,0,VALID,24.638,VALID,354,VALID,0.546094,
2010-04-17, 02:35:04,VALID,1004.26,VALID,0,VALID,96.2688,VALID,0,VALID,24.638,VALID,347,VALID,0.623438,
2010-04-17, 02:36:04,VALID,1004.22,VALID,0,VALID,96.2612,VALID,0,VALID,24.6769,VALID,358,VALID,0.853516,
2010-04-17, 02:37:04,VALID,1004.24,VALID,0,VALID,96.2688,VALID,0,VALID,24.7353,VALID,357,VALID,1.79297,
2010-04-17, 02:38:04,VALID,1004.22,VALID,0,VALID,96.2688,VALID,0,VALID,24.8132,VALID,4,VALID,0.923047,
2010-04-17, 02:39:04,VALID,1004.2,VALID,0,VALID,96.2536,VALID,0,VALID,24.8716,VALID,358,VALID,1.95625,
2010-04-17, 02:40:04,VALID,1004.21,VALID,0,VALID,96.246,VALID,0,VALID,24.9866,VALID,5,VALID,1.42891,
2010-04-17, 02:41:04,VALID,1004.22,VALID,0,VALID,96.162,VALID,0,VALID,25.0644,VALID,17,VALID,1.0543,
2010-04-17, 02:42:04,VALID,1004.23,VALID,0,VALID,95.9255,VALID,0,VALID,25.1851,VALID,28,VALID,1.58125,
2010-04-17, 02:43:04,VALID,1004.28,VALID,0,VALID,95.0787,VALID,0,VALID,25.337,VALID,336,VALID,0.752734,
2010-04-17, 02:44:04,VALID,1004.29,VALID,0,VALID,93.7513,VALID,0,VALID,25.4558,VALID,13,VALID,0.950781,
2010-04-17, 02:45:04,VALID,1004.3,VALID,0,VALID,92.5765,VALID,0,VALID,25.4539,VALID,5,VALID,0.691016,
2010-04-17, 02:46:04,VALID,1004.37,VALID,0,VALID,91.9509,VALID,0.100563,VALID,25.4909,VALID,1,VALID,1.67109,
2010-04-17, 02:47:04,VALID,1004.38,VALID,0,VALID,90.8523,VALID,0.100563,VALID,25.5707,VALID,10,VALID,1.04336,
2010-04-17, 02:48:04,VALID,1004.39,VALID,0,VALID,90.4862,VALID,0.100563,VALID,25.6097,VALID,357,VALID,0.826563,
2010-04-17, 02:49:04,VALID,1004.45,VALID,0,VALID,89.1969,VALID,0.100563,VALID,25.6097,VALID,15,VALID,2.19141,
2010-04-17, 02:50:04,VALID,1004.46,VALID,0,VALID,88.1517,VALID,0,VALID,25.6097,VALID,3,VALID,1.48984,
2010-04-17, 02:51:04,VALID,1004.48,VALID,0,VALID,87.343,VALID,0,VALID,25.6486,VALID,10,VALID,1.65234,
2010-04-17, 02:52:04,VALID,1004.51,VALID,0,VALID,87.5261,VALID,0.100563,VALID,25.6876,VALID,17,VALID,0.952344,
2010-04-17, 02:53:04,VALID,1004.53,VALID,0,VALID,87.2744,VALID,0,VALID,25.67,VALID,9,VALID,1.56055,
2010-04-17, 02:54:04,VALID,1004.52,VALID,0,VALID,86.9006,VALID,0,VALID,25.6486,VALID,24,VALID,1.6207,
2010-04-17, 02:55:04,VALID,1004.55,VALID,0,VALID,87.2896,VALID,0,VALID,25.6486,VALID,356,VALID,0.66875,
2010-04-17, 02:56:04,VALID,1004.58,VALID,0,VALID,87.0074,VALID,0,VALID,25.6097,VALID,24,VALID,1.1832,
2010-04-17, 02:57:04,VALID,1004.52,VALID,0,VALID,87.1066,VALID,0.100563,VALID,25.6097,VALID,30,VALID,0.877344,
2010-04-17, 02:58:04,VALID,1004.57,VALID,0,VALID,86.9082,VALID,0,VALID,25.5707,VALID,21,VALID,1.14336,
2010-04-17, 02:59:04,VALID,1004.55,VALID,0,VALID,86.5496,VALID,0,VALID,25.5707,VALID,10,VALID,1.49414,
2010-04-17, 03:00:04,VALID,1004.58,VALID,0,VALID,86.6717,VALID,0,VALID,25.5921,VALID,353,VALID,0.903125,
2010-04-17, 03:01:04,VALID,1004.59,VALID,0,VALID,86.7251,VALID,0,VALID,25.5727,VALID,337,VALID,0.894141,
2010-04-17, 03:02:04,VALID,1004.62,VALID,0,VALID,87.0455,VALID,0,VALID,25.5318,VALID,354,VALID,0.646094,
2010-04-17, 03:03:04,VALID,1004.62,VALID,0,VALID,87.2515,VALID,0,VALID,25.4948,VALID,360,VALID,1.0918,
2010-04-17, 03:04:04,VALID,1004.63,VALID,0,VALID,87.3507,VALID,0,VALID,25.4558,VALID,2,VALID,0.963672,
2010-04-17, 03:05:04,VALID,1004.64,VALID,0,VALID,87.3507,VALID,0,VALID,25.4169,VALID,11,VALID,1.22031,
2010-04-17, 03:06:04,VALID,1004.64,VALID,0,VALID,86.9235,VALID,0,VALID,25.3974,VALID,5,VALID,1.18828,
2010-04-17, 03:07:04,VALID,1004.64,VALID,0,VALID,86.8701,VALID,0,VALID,25.4383,VALID,349,VALID,1.13203,
2010-04-17, 03:08:04,VALID,1004.65,VALID,0,VALID,87.1905,VALID,0,VALID,25.4363,VALID,347,VALID,0.647266,
2010-04-17, 03:09:04,VALID,1004.66,VALID,0,VALID,87.3125,VALID,0,VALID,25.3974,VALID,352,VALID,0.479297,
2010-04-17, 03:10:04,VALID,1004.66,VALID,0,VALID,87.2439,VALID,0,VALID,25.3974,VALID,351,VALID,0.613672,
2010-04-17, 03:11:04,VALID,1004.65,VALID,0,VALID,87.3659,VALID,0,VALID,25.3798,VALID,349,VALID,0.604688,
2010-04-17, 03:12:04,VALID,1004.67,VALID,0,VALID,87.3659,VALID,0,VALID,25.3584,VALID,345,VALID,0.980469,
2010-04-17, 03:13:04,VALID,1004.64,VALID,0,VALID,87.5109,VALID,0,VALID,25.339,VALID,350,VALID,0.709375,
2010-04-17, 03:14:04,VALID,1004.63,VALID,0,VALID,87.427,VALID,0,VALID,25.3195,VALID,357,VALID,0.96875,
2010-04-17, 03:15:04,VALID,1004.63,VALID,0,VALID,87.3507,VALID,0,VALID,25.3195,VALID,348,VALID,0.655859,
2010-04-17, 03:16:04,VALID,1004.59,VALID,0,VALID,87.549,VALID,0,VALID,25.3195,VALID,346,VALID,0.408594,
2010-04-17, 03:17:04,VALID,1004.61,VALID,0,VALID,87.282,VALID,0,VALID,25.3,VALID,348,VALID,0.671094,
2010-04-17, 03:18:04,VALID,1004.6,VALID,0,VALID,87.427,VALID,0,VALID,25.3195,VALID,339,VALID,0.722266,
2010-04-17, 03:19:04,VALID,1004.6,VALID,0,VALID,87.3965,VALID,0,VALID,25.3,VALID,338,VALID,0.671484,
2010-04-17, 03:20:04,VALID,1004.56,VALID,0,VALID,87.4956,VALID,0,VALID,25.3,VALID,335,VALID,0.626172,
2010-04-17, 03:21:04,VALID,1004.56,VALID,0,VALID,87.6558,VALID,0,VALID,25.3019,VALID,357,VALID,0.476953,
2010-04-17, 03:22:04,VALID,1004.55,VALID,0,VALID,87.8694,VALID,0,VALID,25.2806,VALID,357,VALID,0.475,
2010-04-17, 03:23:04,VALID,1004.52,VALID,0,VALID,87.9839,VALID,0,VALID,25.2416,VALID,357,VALID,0.539063,
2010-04-17, 03:24:04,VALID,1004.52,VALID,0,VALID,88.1441,VALID,0,VALID,25.2221,VALID,357,VALID,0.563281,
2010-04-17, 03:25:04,VALID,1004.51,VALID,0,VALID,88.3577,VALID,0,VALID,25.2027,VALID,12,VALID,0.601953,
2010-04-17, 03:26:04,VALID,1004.5,VALID,0,VALID,88.5789,VALID,0,VALID,25.2046,VALID,8,VALID,0.664063,
2010-04-17, 03:27:04,VALID,1004.46,VALID,0,VALID,88.7544,VALID,0,VALID,25.1442,VALID,360,VALID,0.736328,
2010-04-17, 03:28:04,VALID,1004.41,VALID,0,VALID,88.9527,VALID,0,VALID,25.1053,VALID,8,VALID,0.798437,
2010-04-17, 03:29:04,VALID,1004.41,VALID,0,VALID,88.8841,VALID,0,VALID,25.0858,VALID,21,VALID,0.920703,
2010-04-17, 03:30:04,VALID,1004.39,VALID,0,VALID,88.7086,VALID,0.100563,VALID,25.1229,VALID,4,VALID,1.04492,
2010-04-17, 03:31:04,VALID,1004.38,VALID,0,VALID,88.3272,VALID,0,VALID,25.1813,VALID,33,VALID,1.00078,
2010-04-17, 03:32:04,VALID,1004.35,VALID,0,VALID,87.9762,VALID,0,VALID,25.2592,VALID,20,VALID,1.14766,
2010-04-17, 03:33:04,VALID,1004.35,VALID,0,VALID,87.5567,VALID,0,VALID,25.337,VALID,24,VALID,1.16211,
2010-04-17, 03:34:04,VALID,1004.31,VALID,0,VALID,87.0989,VALID,0.100563,VALID,25.4149,VALID,18,VALID,1.2707,
2010-04-17, 03:35:04,VALID,1004.32,VALID,0,VALID,87.076,VALID,0,VALID,25.4539,VALID,26,VALID,1.03437,
2010-04-17, 03:36:04,VALID,1004.32,VALID,0,VALID,86.6183,VALID,0.100563,VALID,25.4909,VALID,7,VALID,0.854688,
2010-04-17, 03:37:04,VALID,1004.35,VALID,0,VALID,86.4352,VALID,0.100563,VALID,25.5707,VALID,18,VALID,1.27813,
2010-04-17, 03:38:04,VALID,1004.36,VALID,0,VALID,86.3208,VALID,0.100563,VALID,25.5902,VALID,10,VALID,0.860547,
2010-04-17, 03:39:04,VALID,1004.4,VALID,0,VALID,86.0538,VALID,0.100563,VALID,25.5688,VALID,357,VALID,0.819531,
2010-04-17, 03:40:04,VALID,1004.42,VALID,0,VALID,86.2216,VALID,0,VALID,25.6097,VALID,349,VALID,0.486328,
2010-04-17, 03:41:04,VALID,1004.4,VALID,0,VALID,85.9393,VALID,0.100563,VALID,25.6097,VALID,348,VALID,1.16797,
2010-04-17, 03:42:04,VALID,1004.43,VALID,0,VALID,86.3284,VALID,0.100563,VALID,25.6292,VALID,354,VALID,0.842578,
2010-04-17, 03:43:04,VALID,1004.44,VALID,0,VALID,86.4352,VALID,0.100563,VALID,25.5883,VALID,351,VALID,0.716797,
2010-04-17, 03:44:04,VALID,1004.45,VALID,0,VALID,86.3284,VALID,0.100563,VALID,25.5902,VALID,352,VALID,0.989453,
2010-04-17, 03:45:04,VALID,1004.46,VALID,0,VALID,86.5649,VALID,0,VALID,25.5727,VALID,360,VALID,0.730859,
2010-04-17, 03:46:04,VALID,1004.42,VALID,0,VALID,86.7709,VALID,0,VALID,25.5727,VALID,348,VALID,0.785937,